Vorticity
7 9 6 9 8 7 9 7 8 9 6 5 8 7 10 10 7 5 6 9 17 8 9 13 11 6 4 8 8 7 12 6 9 5 9 10 3 5 12 21 18 6 6 3
8 9 10 8 7 6 6 6 8 6 8 6 6 3 15 6 2 5 7 9 10 10 7 7 6 10 14 8 2 8 9 13 5 12 6 4 4 7 4 9 6 9 13 7
13 10 9 8 5 5 4 8 9 8 5 10 5 8 17 -0 5 5 -1 6 5 14 13 12 17 6 7 17 15 5 9 9 9 2 6 10 8 10 2 4 9 3 8 9
12 9 8 6 6 6 6 8 7 7 8 7 9 5 9 5 0 8 2 10 4 7 18 10 8 13 4 3 9 14 10 9 11 9 11 11 7 9 14 12 8 10 3 2
6 7 5 5 5 5 7 6 8 6 5 4 15 13 4 9 5 7 7 5 -3 4 6 12 13 15 13 8 1 14 14 4 5 13 8 7 7 5 15 10 13 10 12 6
7 5 5 6 6 8 6 8 8 8 4 12 8 13 14 4 4 3 6 4 -3 7 12 8 3 6 18 16 17 5 15 18 5 6 11 10 6 7 6 6 6 16 15 11
8 6 7 9 10 8 9 9 6 12 5 5 14 16 3 11 5 4 3 1 4 8 10 8 10 1 9 17 14 11 7 17 18 10 8 15 9 7 4 7 7 6 1 23
11 17 7 10 9 1 9 9 6 5 3 -2 13 20 14 8 5 -1 3 4 5 3 16 14 19 17 18 11 14 13 10 9 10 10 9 9 10 8 7 5 9 10 9 13
3 8 6 4 2 5 -3 12 -9 5 10 10 11 4 24 10 -2 3 5 5 5 -1 13 2 3 -1 8 27 15 13 13 10 15 6 8 9 8 9 10 11 12 10 7 9
2 6 5 5 2 6 6 -1 7 14 9 9 5 10 5 2 20 9 6 3 1 -4 7 1 9 4 8 2 12 19 11 8 7 16 5 10 14 11 11 13 12 8 7 9
4 10 9 7 10 -2 -1 13 14 2 0 1 6 7 1 3 8 11 5 2 2 0 1 6 -1 9 3 -1 5 12 19 16 4 8 9 9 7 9 9 9 11 9 9 9
10 10 15 16 2 9 8 2 1 0 4 7 -0 5 -1 4 4 -1 17 4 1 -0 1 5 3 0 9 7 2 4 17 10 19 15 9 11 9 12 9 5 8 8 11 9
7 6 10 13 19 20 10 13 8 7 1 -1 -1 3 2 -1 2 9 4 15 10 6 3 16 5 1 -2 2 3 8 0 -2 15 3 13 14 11 9 12 12 9 8 6 11
6 7 5 5 4 3 4 8 10 10 11 8 11 8 6 -2 6 10 10 9 11 3 8 6 5 2 3 1 4 4 6 14 10 18 5 10 8 11 11 10 12 7 8 11
5 5 6 8 7 6 5 6 8 8 7 7 6 5 -5 3 10 8 7 6 8 8 3 5 -2 9 3 2 4 0 8 -1 -4 -0 11 8 6 6 5 13 10 13 8 12
9 8 7 9 9 9 10 10 10 12 13 11 12 11 10 10 13 12 10 9 6 5 6 4 4 -2 12 6 -2 1 4 -1 5 -4 7 10 16 11 5 7 13 17 9 7
11 10 8 9 11 12 12 9 12 12 12 14 12 4 13 12 13 13 13 11 11 10 11 10 9 2 -3 16 7 0 -0 3 1 -0 -3 17 13 7 11 2 6 9 7 12
7 7 7 8 10 6 9 10 11 12 12 12 13 15 12 14 16 20 17 14 12 11 9 11 12 16 2 2 8 1 5 1 6 7 6 7 22 8 4 -2 38 -4 18 1
8 9 8 8 8 9 12 11 17 15 15 15 18 17 17 18 18 16 13 18 18 15 9 12 14 11 19 12 -2 -1 5 -0 6 8 3 1 12 10 9 -9 -1 36 5 -8
7 6 6 9 12 12 11 18 16 15 16 17 16 14 13 12 10 1 18 17 16 20 16 16 8 10 12 12 12 8 5 4 5 1 13 3 11 12 -2 2 12 11 21 13
6 9 11 13 13 13 12 15 19 16 6 21 19 23 20 20 20 21 15 14 14 17 21 23 15 15 18 10 11 13 8 5 6 9 8 -4 10 12 1 10 13 10 9 -0
11 14 13 16 16 11 24 19 14 13 17 21 16 16 16 15 16 14 15 14 13 14 19 23 24 23 14 23 8 9 12 8 9 11 14 18 2 17 -3 14 7 9 17 12
10 15 16 19 16 16 14 14 14 13 10 8 8 8 5 7 7 7 7 6 8 7 8 8 20 28 23 20 20 8 11 9 12 9 3 10 5 24 10 10 12 15 19 9
13 16 16 18 12 13 16 13 13 11 10 10 9 9 9 6 7 11 11 8 6 7 6 7 7 19 25 19 25 15 7 10 5 3 -0 -4 13 5 -1 -4 2 15 12 11
13 17 15 12 12 16 17 10 9 6 4 4 9 11 5 9 -1 7 9 24 27 18 13 10 1 3 15 21 18 28 16 12 8 16 0 6 -4 -20 15 5 10 15 14 12
16 16 13 12 15 19 12 9 7 8 5 11 7 3 11 8 5 7 12 4 24 10 38 13 19 10 7 12 22 15 27 13 12 14 12 6 9 10 4 23 6 18 9 6
Height
5910 5910 5911 5912 5912 5913 5913 5913 5914 5914 5913 5912 5911 5910 5909 5908 5907 5906 5904 5903 5903 5901 5901 5900 5900 5901 5901 5902 5902 5903 5904 5904 5905 5906 5908 5910 5912 5913 5912 5913 5912 5914 5916 5918
5909 5909 5910 5911 5911 5911 5912 5912 5913 5912 5912 5911 5910 5909 5909 5909 5908 5907 5905 5904 5903 5902 5900 5900 5899 5899 5900 5900 5901 5901 5902 5903 5905 5906 5907 5909 5911 5913 5913 5912 5914 5914 5914 5916
5906 5907 5907 5909 5909 5910 5910 5911 5911 5911 5910 5911 5910 5909 5909 5908 5908 5908 5907 5905 5904 5902 5900 5899 5898 5898 5898 5898 5898 5899 5900 5901 5903 5904 5906 5907 5909 5911 5912 5912 5912 5913 5913 5914
5903 5904 5906 5907 5908 5908 5909 5910 5909 5909 5909 5910 5910 5911 5908 5907 5908 5907 5908 5906 5904 5902 5900 5899 5897 5896 5896 5896 5896 5896 5898 5899 5900 5902 5904 5905 5906 5907 5909 5911 5911 5911 5912 5913
5903 5904 5904 5905 5906 5906 5908 5907 5907 5907 5908 5908 5910 5910 5908 5907 5907 5907 5907 5905 5903 5902 5900 5898 5895 5895 5894 5894 5895 5894 5894 5896 5898 5899 5901 5903 5904 5905 5906 5907 5908 5909 5911 5912
5901 5902 5902 5903 5904 5904 5905 5906 5906 5907 5908 5910 5907 5908 5910 5905 5906 5905 5904 5903 5903 5901 5899 5898 5896 5893 5891 5890 5891 5892 5892 5893 5894 5896 5898 5900 5901 5902 5904 5906 5906 5907 5909 5909
5900 5901 5900 5901 5901 5902 5903 5904 5909 5911 5910 5911 5906 5906 5907 5903 5903 5903 5902 5901 5900 5900 5897 5897 5896 5894 5890 5888 5888 5889 5889 5889 5890 5892 5894 5896 5898 5899 5901 5903 5904 5905 5906 5907
5900 5899 5898 5899 5900 5902 5901 5904 5907 5908 5910 5910 5904 5904 5904 5901 5901 5900 5900 5898 5897 5897 5895 5894 5893 5891 5890 5887 5886 5886 5887 5886 5887 5889 5891 5892 5894 5896 5898 5899 5901 5902 5903 5903
5897 5897 5895 5895 5896 5898 5898 5899 5901 5903 5903 5902 5905 5902 5901 5900 5900 5899 5897 5896 5895 5895 5893 5891 5890 5890 5888 5886 5884 5883 5884 5885 5885 5886 5888 5889 5891 5892 5894 5896 5897 5899 5900 5901
5895 5895 5893 5893 5893 5894 5895 5895 5898 5899 5901 5901 5903 5900 5900 5897 5896 5896 5894 5894 5893 5892 5892 5890 5889 5888 5888 5886 5885 5883 5883 5883 5884 5884 5885 5887 5888 5889 5890 5891 5893 5895 5897 5899
5890 5892 5892 5891 5891 5893 5890 5891 5890 5892 5895 5896 5898 5901 5894 5893 5891 5892 5890 5890 5889 5889 5889 5888 5886 5885 5884 5883 5882 5882 5881 5880 5881 5881 5882 5883 5884 5885 5886 5888 5889 5891 5893 5895
5886 5887 5888 5888 5885 5886 5884 5883 5884 5887 5891 5888 5887 5890 5886 5886 5884 5885 5884 5884 5884 5884 5885 5884 5883 5882 5881 5880 5880 5879 5878 5877 5877 5878 5879 5879 5880 5881 5882 5884 5886 5887 5888 5891
5878 5879 5881 5883 5883 5880 5878 5878 5879 5878 5877 5877 5880 5886 5877 5875 5874 5877 5878 5877 5878 5878 5878 5879 5879 5878 5877 5877 5876 5876 5877 5876 5875 5874 5874 5875 5876 5876 5877 5879 5881 5883 5885 5886
5871 5873 5872 5873 5875 5873 5870 5869 5870 5869 5868 5868 5870 5872 5871 5859 5865 5865 5866 5868 5869 5871 5872 5872 5873 5873 5873 5872 5872 5872 5871 5871 5872 5871 5870 5871 5872 5872 5873 5874 5876 5878 5879 5882
5866 5867 5865 5864 5863 5861 5861 5862 5861 5858 5856 5854 5856 5854 5854 5847 5853 5854 5854 5855 5857 5859 5862 5863 5864 5865 5866 5865 5866 5866 5865 5866 5866 5867 5867 5866 5866 5867 5868 5870 5871 5872 5874 5875
5859 5858 5857 5855 5852 5851 5849 5849 5848 5847 5845 5842 5841 5838 5836 5831 5839 5841 5842 5843 5843 5845 5848 5851 5853 5855 5857 5858 5858 5858 5858 5858 5860 5861 5860 5861 5862 5863 5864 5865 5868 5869 5871 5872
5852 5850 5847 5845 5843 5841 5839 5836 5835 5833 5831 5829 5828 5821 5822 5819 5821 5823 5825 5826 5828 5830 5833 5835 5839 5843 5846 5848 5848 5850 5849 5849 5851 5854 5855 5856 5856 5858 5859 5860 5862 5864 5865 5867
5843 5841 5838 5836 5832 5830 5823 5823 5822 5819 5815 5814 5811 5809 5807 5804 5803 5806 5807 5809 5812 5815 5817 5820 5823 5828 5832 5836 5837 5838 5841 5842 5843 5845 5848 5849 5850 5851 5854 5856 5857 5857 5859 5862
5835 5831 5828 5826 5823 5818 5814 5809 5809 5804 5800 5798 5796 5795 5794 5793 5792 5791 5792 5793 5795 5798 5801 5804 5808 5812 5816 5821 5824 5826 5829 5832 5835 5836 5839 5842 5843 5846 5847 5849 5849 5850 5853 5854
5824 5821 5817 5813 5809 5806 5798 5799 5794 5792 5789 5785 5785 5782 5782 5781 5781 5776 5780 5780 5782 5784 5786 5789 5792 5797 5800 5805 5809 5813 5817 5820 5824 5826 5829 5832 5834 5839 5841 5842 5842 5841 5842 5844
5812 5809 5804 5800 5796 5793 5785 5785 5783 5781 5779 5775 5773 5772 5770 5769 5768 5769 5768 5768 5769 5770 5773 5774 5776 5780 5785 5789 5793 5797 5802 5807 5810 5814 5818 5821 5825 5830 5833 5833 5834 5835 5833 5837
5802 5797 5793 5790 5787 5781 5778 5775 5773 5769 5767 5765 5764 5762 5760 5760 5760 5759 5759 5757 5756 5756 5757 5761 5763 5765 5769 5774 5778 5783 5788 5792 5797 5802 5806 5810 5813 5819 5823 5825 5825 5827 5828 5830
5791 5789 5784 5780 5776 5770 5768 5765 5762 5759 5759 5756 5754 5754 5750 5750 5751 5749 5748 5747 5746 5745 5745 5745 5748 5751 5754 5759 5763 5768 5773 5778 5784 5789 5794 5798 5802 5809 5814 5816 5817 5820 5822 5822
5779 5777 5773 5769 5765 5763 5760 5755 5752 5751 5750 5750 5747 5744 5743 5739 5737 5737 5735 5733 5732 5731 5731 5732 5733 5737 5740 5743 5748 5754 5758 5764 5770 5776 5781 5786 5794 5795 5800 5807 5807 5811 5813 5816
5769 5766 5763 5759 5755 5754 5751 5748 5745 5744 5742 5739 5738 5734 5731 5728 5727 5724 5721 5719 5718 5716 5715 5717 5718 5722 5726 5728 5734 5740 5744 5751 5757 5763 5769 5772 5775 5752 5778 5791 5794 5799 5803 5804
5760 5758 5754 5750 5747 5746 5745 5742 5738 5736 5733 5730 5727 5725 5722 5716 5711 5709 5706 5703 5701 5701 5699 5699 5702 5706 5711 5715 5719 5725 5731 5737 5743 5749 5754 5757 5765 5769 5771 5776 5781 5787 5790 5792